Погода в Задонске

Россия / Липецкая область     52°23′31″N   38°55′10″E
темп.,
°C
ветер,
м/с
пор.,
м/с
влажн.,
%
обл.,
%
осадки,
мм/ч
давл.,
гПа
погр.,
м
14 апреля, ср
ср1400:00+12юв336967 0.0 102237
03:00+11ююв228199 0.0 102213
06:00+10в2276100 0.0 102133
09:00+13вюв5749100 0.0 1021309
12:00+18вюв573378 0.0 10191026
15:00+19юв682462 0.0 10171950
18:00+18ююв2335100 0.0 101746
21:00+13вюв344887 0.0 101748
15 апреля, чт
чт1500:00+12вюв4856100 0.0 1016171
03:00+10ююв226397 0.0 101627
06:00+11всв2262100 0.0 101534
09:00+14всв3453100 0.0 1015321
12:00+17в3444100 0.0 1014594
15:00+19юв4738100 0.0 10132249
18:00+16юв485198 0.0 1014263
21:00+13вюв346693 0.1 101583
16 апреля, пт
пт1600:00+12юв227098 0.0 101546
03:00+11всв2378100 0.6 101582
06:00+11ююв3681100 0.3 1016163
09:00+13в2370100 0.6 1017263
12:00+15ююв6759100 0.1 10171133
15:00+17юв5747100 0.4 10171962
18:00+11ю698492 1.5 1018299
21:00+11вюв227389 1.9 101832
17 апреля, сб
сб1700:00+11в248096 0.0 101998
03:00+11св488783 0.1 1018174
06:00+9св5109493 0.2 1018269
09:00+12всв7117695 0.4 1018540
12:00+17всв9125294 0.0 10181449
15:00+16вюв71260100 1.4 10181728
18:00+9юв3791100 10.8 1020446
21:00+8вюв239183 13.0 1022309
18 апреля, вс
вс1800:00+8вюв129266 1.1 1023135
03:00+7юв1292100 1.2 102357
06:00+7св2395100 0.0 102394
09:00+7всв5983100 1.4 1024446
12:00+7в51186100 0.3 1025599
15:00+11в596795 0.4 10251031
18:00+10юв2269100 0.0 102573
21:00+8св347050 0.0 102663